TimeMDT,TemperatureF,Dew PointF,Humidity,Sea Level PressureIn,VisibilityMPH,Wind Direction,Wind SpeedMPH,Gust SpeedMPH,PrecipitationIn,Events,Conditions,WindDirDegrees,DateUTC
12:15 AM,75.4,34.0,22,30.12,10.0,Calm,Calm,-,N/A,,Scattered Clouds,0,2013-06-16 06:15:00
12:35 AM,71.6,37.6,29,30.12,10.0,NE,6.9,-,N/A,,Clear,40,2013-06-16 06:35:00
12:55 AM,70.2,37.8,31,30.12,10.0,North,4.6,-,N/A,,Clear,360,2013-06-16 06:55:00
1:15 AM,69.4,32.9,26,30.12,10.0,NNE,8.1,-,N/A,,Clear,30,2013-06-16 07:15:00
1:35 AM,67.1,35.8,31,30.12,10.0,NE,5.8,-,N/A,,Clear,40,2013-06-16 07:35:00
1:55 AM,66.4,35.2,32,30.12,10.0,East,10.4,-,N/A,,Clear,80,2013-06-16 07:55:00
2:15 AM,66.4,34.3,31,30.12,10.0,NE,9.2,-,N/A,,Clear,40,2013-06-16 08:15:00
2:35 AM,66.9,34.7,30,30.12,10.0,NE,8.1,-,N/A,,Clear,50,2013-06-16 08:35:00
2:55 AM,64.2,36.5,36,30.13,10.0,NNE,8.1,-,N/A,,Clear,20,2013-06-16 08:55:00
3:15 AM,64.2,36.7,36,30.15,10.0,NNE,3.5,-,N/A,Thunderstorm,Scattered Clouds,30,2013-06-16 09:15:00
3:35 AM,65.5,35.1,32,30.15,10.0,Calm,Calm,-,N/A,,Mostly Cloudy,0,2013-06-16 09:35:00
3:55 AM,67.3,34.7,30,30.13,10.0,ENE,9.2,-,N/A,,Mostly Cloudy,70,2013-06-16 09:55:00
4:15 AM,65.7,35.2,32,30.14,10.0,SE,6.9,-,N/A,,Mostly Cloudy,130,2013-06-16 10:15:00
4:35 AM,64.0,35.6,35,30.14,10.0,ESE,5.8,-,N/A,,Scattered Clouds,120,2013-06-16 10:35:00
4:55 AM,63.1,36.5,37,30.15,10.0,Calm,Calm,-,N/A,Rain,Light Rain,0,2013-06-16 10:55:00
5:15 AM,61.5,43.0,51,30.15,10.0,Calm,Calm,-,N/A,,Scattered Clouds,0,2013-06-16 11:15:00
5:35 AM,61.9,40.6,46,30.16,10.0,East,5.8,-,N/A,,Scattered Clouds,80,2013-06-16 11:35:00
5:55 AM,63.7,36.9,37,30.16,10.0,ESE,5.8,-,N/A,,Mostly Cloudy,120,2013-06-16 11:55:00
6:15 AM,63.7,37.0,37,30.16,10.0,East,5.8,-,N/A,,Mostly Cloudy,100,2013-06-16 12:15:00
6:35 AM,63.7,37.6,38,30.17,10.0,ESE,5.8,-,N/A,,Mostly Cloudy,120,2013-06-16 12:35:00
6:55 AM,64.6,37.8,37,30.17,10.0,NNE,4.6,-,N/A,,Scattered Clouds,30,2013-06-16 12:55:00
7:15 AM,65.1,39.6,39,30.18,10.0,Calm,Calm,-,N/A,,Mostly Cloudy,0,2013-06-16 13:15:00
7:35 AM,65.8,36.5,34,30.18,10.0,ENE,8.1,-,N/A,Thunderstorm,Overcast,70,2013-06-16 13:35:00
7:55 AM,66.2,36.7,34,30.19,10.0,NE,6.9,-,N/A,Thunderstorm,Thunderstorm,40,2013-06-16 13:55:00
8:15 AM,68.9,37.8,32,30.19,10.0,North,9.2,-,N/A,Thunderstorm,Mostly Cloudy,10,2013-06-16 14:15:00
8:35 AM,69.6,37.2,31,30.19,10.0,NE,3.5,-,N/A,,Scattered Clouds,40,2013-06-16 14:35:00
8:55 AM,71.8,36.5,28,30.19,10.0,ESE,3.5,-,N/A,Thunderstorm,Mostly Cloudy,110,2013-06-16 14:55:00
9:15 AM,73.2,38.5,28,30.19,10.0,East,12.7,-,N/A,Thunderstorm,Mostly Cloudy,90,2013-06-16 15:15:00
9:35 AM,72.1,40.1,31,30.19,10.0,East,11.5,-,N/A,Thunderstorm,Thunderstorm,100,2013-06-16 15:35:00
9:55 AM,75.4,41.9,30,30.19,10.0,East,6.9,-,N/A,Thunderstorm,Clear,90,2013-06-16 15:55:00
10:15 AM,78.8,40.3,25,30.18,10.0,ENE,4.6,-,N/A,Thunderstorm,Thunderstorm,70,2013-06-16 16:15:00
10:35 AM,79.7,39.9,24,30.18,10.0,ENE,6.9,-,N/A,Thunderstorm,Thunderstorm,70,2013-06-16 16:35:00
10:55 AM,81.9,36.7,20,30.17,10.0,NE,5.8,-,N/A,,Clear,50,2013-06-16 16:55:00
11:15 AM,82.9,37.0,19,30.16,10.0,ESE,9.2,-,N/A,,Clear,120,2013-06-16 17:15:00
11:35 AM,84.9,37.6,19,30.16,10.0,ESE,5.8,-,N/A,Thunderstorm,Clear,120,2013-06-16 17:35:00
11:55 AM,84.7,37.9,19,30.16,10.0,South,3.5,-,N/A,Thunderstorm,Clear,180,2013-06-16 17:55:00
12:15 PM,85.8,37.6,18,30.15,10.0,SW,3.5,-,N/A,,Clear,230,2013-06-16 18:15:00
12:35 PM,84.7,37.2,18,30.14,10.0,Calm,Calm,-,N/A,,Clear,0,2013-06-16 18:35:00
12:55 PM,86.9,37.2,17,30.14,10.0,West,4.6,-,N/A,Thunderstorm,Clear,270,2013-06-16 18:55:00
1:15 PM,87.1,33.4,15,30.12,10.0,West,8.1,-,N/A,,Clear,260,2013-06-16 19:15:00
1:35 PM,88.2,31.8,13,30.11,10.0,West,5.8,16.1,N/A,Thunderstorm,Clear,270,2013-06-16 19:35:00
1:55 PM,88.3,32.2,13,30.10,10.0,WSW,8.1,-,N/A,Thunderstorm,Clear,250,2013-06-16 19:55:00
2:15 PM,90.7,33.6,13,30.10,10.0,South,12.7,18.4,N/A,,Scattered Clouds,170,2013-06-16 20:15:00
2:35 PM,85.8,33.4,15,30.12,10.0,South,16.1,23.0,N/A,,Mostly Cloudy,190,2013-06-16 20:35:00
2:55 PM,86.0,33.1,15,30.11,10.0,West,11.5,-,N/A,Thunderstorm,Mostly Cloudy,260,2013-06-16 20:55:00
3:15 PM,85.8,30.7,14,30.11,10.0,West,12.7,20.7,N/A,,Scattered Clouds,270,2013-06-16 21:15:00
3:35 PM,86.5,33.8,15,30.10,10.0,WNW,10.4,-,N/A,,Scattered Clouds,300,2013-06-16 21:35:00
3:55 PM,87.8,32.0,14,30.09,10.0,WNW,11.5,18.4,N/A,,Clear,300,2013-06-16 21:55:00
4:15 PM,89.1,32.0,13,30.08,10.0,NW,10.4,16.1,N/A,,Clear,310,2013-06-16 22:15:00
4:35 PM,89.2,32.0,13,30.07,10.0,NW,11.5,-,N/A,,Clear,310,2013-06-16 22:35:00
4:55 PM,89.4,30.2,12,30.05,10.0,NNW,8.1,18.4,N/A,,Clear,330,2013-06-16 22:55:00
5:15 PM,90.1,30.4,12,30.04,10.0,NNW,6.9,18.4,N/A,,Clear,340,2013-06-16 23:15:00
5:35 PM,89.6,30.2,12,30.04,10.0,North,6.9,-,N/A,,Clear,350,2013-06-16 23:35:00
5:55 PM,88.5,29.7,12,30.04,10.0,Calm,Calm,-,N/A,,Clear,0,2013-06-16 23:55:00
6:15 PM,89.6,31.1,12,30.03,10.0,SSE,12.7,-,N/A,,Clear,160,2013-06-17 00:15:00
6:35 PM,88.0,30.6,13,30.02,10.0,SSE,6.9,-,N/A,,Clear,150,2013-06-17 00:35:00
6:55 PM,86.5,32.0,14,30.02,10.0,SE,8.1,-,N/A,,Clear,140,2013-06-17 00:55:00
7:15 PM,87.3,31.5,14,30.02,10.0,SSE,6.9,-,N/A,,Clear,150,2013-06-17 01:15:00
7:35 PM,87.1,32.7,14,30.02,10.0,ESE,4.6,-,N/A,,Clear,110,2013-06-17 01:35:00
7:55 PM,86.4,33.4,15,30.03,10.0,ESE,3.5,-,N/A,,Clear,110,2013-06-17 01:55:00
8:15 PM,85.1,35.4,17,30.04,10.0,Calm,Calm,-,N/A,,Clear,0,2013-06-17 02:15:00
8:35 PM,82.6,35.8,19,30.04,10.0,East,6.9,-,N/A,,Clear,90,2013-06-17 02:35:00
8:55 PM,80.6,38.3,22,30.04,10.0,ENE,5.8,-,N/A,,Clear,70,2013-06-17 02:55:00
9:15 PM,78.1,38.3,24,30.05,10.0,NE,5.8,-,N/A,,Clear,50,2013-06-17 03:15:00
9:35 PM,77.7,38.7,25,30.06,10.0,NE,8.1,-,N/A,,Clear,50,2013-06-17 03:35:00
9:55 PM,76.1,38.8,26,30.07,10.0,East,10.4,-,N/A,,Clear,80,2013-06-17 03:55:00
10:15 PM,75.2,37.6,26,30.08,10.0,NNE,6.9,-,N/A,,Clear,30,2013-06-17 04:15:00
10:35 PM,74.1,35.6,25,30.08,10.0,NE,8.1,-,N/A,,Clear,50,2013-06-17 04:35:00
10:55 PM,73.8,36.5,26,30.08,10.0,NE,11.5,-,N/A,,Clear,50,2013-06-17 04:55:00
11:15 PM,72.5,34.9,25,30.08,10.0,NE,6.9,-,N/A,,Clear,40,2013-06-17 05:15:00
11:35 PM,70.7,35.4,27,30.08,10.0,NNE,8.1,-,N/A,,Clear,20,2013-06-17 05:35:00
11:55 PM,71.1,32.9,25,30.09,10.0,ENE,9.2,-,N/A,,Clear,60,2013-06-17 05:55:00